Woodlawn, VA

9:44 AM EDT on September 28, 2016 (GMT -0400)
Twin County

Weather History for KHLX - October, 2012

Change the Weather History Date:

Saturday, October 6, 2012

  Actual Average (KBLF) Record (KBLF)
Temperature  
Mean Temperature 60 °F 59 °F  
Max Temperature 69 °F 68 °F 85 °F (2007)
Min Temperature 51 °F 50 °F 30 °F (1980)
Degree Days  
Heating Degree Days 5 7  
Month to date heating degree days 38  
Since 1 July heating degree days 117  
Cooling Degree Days 0 1  
Month to date cooling degree days 6  
Year to date cooling degree days 838  
Growing Degree Days 10 (Base 50)    
Moisture  
Dew Point 55 °F    
Average Humidity 83    
Maximum Humidity 94    
Minimum Humidity 68    
Precipitation  
Precipitation 0.00 in 0.08 in 0.84 in (2014)
Month to date precipitation 0.51  
Year to date precipitation 32.04  
Snow  
Snow 0.00 in - - ()
Month to date snowfall  
Since 1 July snowfall  
Since 1 September snowfall  
Snow Depth -    
Sea Level Pressure  
Sea Level Pressure 30.05 in    
Wind  
Wind Speed 7 mph (West)    
Max Wind Speed 17 mph    
Max Gust Speed 28 mph    
Visibility 10 miles    
Events      
T = Trace of Precipitation, MM = Missing Value Source: NWS Daily Summary

Daily Weather History Graph

Daily Weather History Graph

Search for Another Location

Airport or City:

Trip Planner

Search our weather history database for the weather conditions in past years. The results will help you decide how hot, cold, wet, or windy it might be!

Date:

Astronomy

Oct. 06, 2012 Rise Set
Actual Time 7:23 AM EDT 6:58 PM EDT
Civil Twilight 6:57 AM EDT 7:24 PM EDT
Nautical Twilight 6:27 AM EDT 7:54 PM EDT
Astronomical Twilight 5:57 AM EDT 8:24 PM EDT
Moon 11:19 PM EDT (10/6) 1:09 PM EDT (10/6)
Length of Visible Light 12h 27m
Length of Day
11h 35m
Waning Gibbous, 65% of the Moon is Illuminated
Oct 6
Waning Gibbous
Oct 8
Last Quarter
Oct 15
New
Oct 21
First Quarter
Oct 29
Full

Hourly Weather History & Observations

Time (EDT) Temp. Dew Point Humidity Pressure Visibility Wind Dir Wind Speed Gust Speed Precip Events Conditions
12:15 AM 62.6 °F 57.2 °F 82% 30.10 in 10.0 mi South 3.5 mph - N/A   Mostly Cloudy
12:35 AM 62.6 °F 57.2 °F 82% 30.10 in 10.0 mi South 5.8 mph - N/A   Scattered Clouds
12:55 AM 62.6 °F 57.2 °F 82% 30.09 in 10.0 mi SSW 8.1 mph - N/A   Clear
1:15 AM 62.6 °F 57.2 °F 82% 30.08 in 10.0 mi South 5.8 mph - N/A   Clear
1:35 AM 60.8 °F 57.2 °F 88% 30.08 in 10.0 mi South 4.6 mph - N/A   Clear
1:55 AM 60.8 °F 57.2 °F 88% 30.08 in 10.0 mi SSW 5.8 mph - N/A   Clear
2:15 AM 59.0 °F 55.4 °F 88% 30.07 in 10.0 mi SSW 5.8 mph - N/A   Clear
2:35 AM 60.8 °F 57.2 °F 88% 30.06 in 10.0 mi SSW 8.1 mph - N/A   Clear
2:55 AM 57.2 °F 55.4 °F 94% 30.05 in 10.0 mi SSW 8.1 mph - N/A   Clear
3:15 AM 59.0 °F 55.4 °F 88% 30.05 in 10.0 mi SSW 5.8 mph - N/A   Clear
3:35 AM 59.0 °F 57.2 °F 94% 30.04 in 10.0 mi SSW 5.8 mph - N/A   Clear
3:55 AM 60.8 °F 57.2 °F 88% 30.04 in 10.0 mi SSW 6.9 mph - N/A   Clear
4:15 AM 59.0 °F 57.2 °F 94% 30.04 in 10.0 mi SW 3.5 mph - N/A   Clear
4:35 AM 57.2 °F 55.4 °F 94% 30.03 in 10.0 mi SSW 3.5 mph - N/A   Clear
4:55 AM 57.2 °F 55.4 °F 94% 30.04 in 10.0 mi Calm Calm - N/A   Clear
5:15 AM 57.2 °F 55.4 °F 94% 30.04 in 10.0 mi SSW 4.6 mph - N/A   Clear
5:35 AM 57.2 °F 55.4 °F 94% 30.03 in 10.0 mi SW 4.6 mph - N/A   Clear
5:55 AM 59.0 °F 55.4 °F 88% 30.03 in 10.0 mi WSW 3.5 mph - N/A   Clear
6:15 AM 57.2 °F 55.4 °F 94% 30.03 in 10.0 mi SW 4.6 mph - N/A   Clear
6:35 AM 57.2 °F 55.4 °F 94% 30.03 in 10.0 mi SSW 3.5 mph - N/A   Clear
6:55 AM 57.2 °F 55.4 °F 94% 30.04 in 10.0 mi SSW 3.5 mph - N/A   Clear
7:15 AM 57.2 °F 55.4 °F 94% 30.04 in 10.0 mi SSW 4.6 mph - N/A   Clear
7:35 AM 57.2 °F 55.4 °F 94% 30.04 in 10.0 mi SSW 4.6 mph - N/A   Clear
7:55 AM 57.2 °F 55.4 °F 94% 30.04 in 10.0 mi SSW 3.5 mph - N/A   Scattered Clouds
8:15 AM 57.2 °F 55.4 °F 94% 30.04 in 10.0 mi SW 4.6 mph - N/A   Mostly Cloudy
8:35 AM 59.0 °F 55.4 °F 88% 30.04 in 10.0 mi SW 5.8 mph - N/A   Scattered Clouds
8:55 AM 60.8 °F 57.2 °F 88% 30.04 in 10.0 mi SW 6.9 mph - N/A   Clear
9:15 AM 64.4 °F 57.2 °F 77% 30.04 in 10.0 mi WSW 8.1 mph - N/A   Clear
9:35 AM 66.2 °F 57.2 °F 73% 30.03 in 10.0 mi WSW 5.8 mph - N/A   Clear
9:55 AM 66.2 °F 59.0 °F 78% 30.02 in 10.0 mi SW 8.1 mph - N/A   Clear
10:15 AM 68.0 °F 59.0 °F 73% 30.02 in 10.0 mi West 8.1 mph - N/A   Scattered Clouds
10:35 AM 69.8 °F 59.0 °F 68% 30.03 in 10.0 mi West 10.4 mph 16.1 mph N/A   Clear
10:55 AM 69.8 °F 59.0 °F 68% 30.03 in 10.0 mi West 16.1 mph 24.2 mph N/A   Scattered Clouds
11:15 AM 69.8 °F 59.0 °F 68% 30.03 in 10.0 mi West 16.1 mph 24.2 mph N/A   Scattered Clouds
11:35 AM 69.8 °F 59.0 °F 68% 30.04 in 10.0 mi West 17.3 mph 24.2 mph N/A   Scattered Clouds
11:55 AM 69.8 °F 59.0 °F 68% 30.04 in 10.0 mi West 16.1 mph 27.6 mph N/A   Mostly Cloudy
12:15 PM 68.0 °F 59.0 °F 73% 30.04 in 10.0 mi West 12.7 mph 20.7 mph N/A   Mostly Cloudy
12:35 PM 68.0 °F 59.0 °F 73% 30.05 in 10.0 mi WNW 13.8 mph 23.0 mph N/A   Mostly Cloudy
12:55 PM 66.2 °F 59.0 °F 78% 30.05 in 10.0 mi WNW 16.1 mph 24.2 mph N/A   Mostly Cloudy
1:15 PM 66.2 °F 59.0 °F 78% 30.05 in 10.0 mi WNW 8.1 mph 18.4 mph N/A   Mostly Cloudy
1:35 PM 64.4 °F 59.0 °F 83% 30.05 in 10.0 mi WNW 10.4 mph - N/A   Overcast
1:55 PM 64.4 °F 59.0 °F 83% 30.04 in 10.0 mi WNW 10.4 mph 16.1 mph N/A   Overcast
2:15 PM 64.4 °F 59.0 °F 83% 30.05 in 10.0 mi WNW 13.8 mph 23.0 mph N/A   Overcast
2:35 PM 62.6 °F 57.2 °F 82% 30.04 in 10.0 mi West 10.4 mph 23.0 mph N/A   Overcast
2:55 PM 62.6 °F 57.2 °F 82% 30.05 in 10.0 mi West 8.1 mph 17.3 mph N/A   Overcast
3:15 PM 62.6 °F 57.2 °F 82% 30.05 in 10.0 mi WNW 8.1 mph - N/A   Overcast
3:35 PM 62.6 °F 55.4 °F 77% 30.04 in 10.0 mi NNW 10.4 mph - N/A   Overcast
3:55 PM 60.8 °F 55.4 °F 82% 30.05 in 10.0 mi NW 8.1 mph - N/A   Overcast
4:15 PM 62.6 °F 55.4 °F 77% 30.04 in 10.0 mi NNW 5.8 mph - N/A   Mostly Cloudy
4:35 PM 60.8 °F 53.6 °F 77% 30.04 in 10.0 mi NNW 8.1 mph - N/A   Mostly Cloudy
4:55 PM 60.8 °F 55.4 °F 82% 30.04 in 10.0 mi NNW 9.2 mph - N/A   Mostly Cloudy
5:15 PM 60.8 °F 55.4 °F 82% 30.05 in 10.0 mi NW 8.1 mph - N/A   Overcast
5:35 PM 60.8 °F 53.6 °F 77% 30.04 in 10.0 mi NW 5.8 mph - N/A   Overcast
5:55 PM 60.8 °F 53.6 °F 77% 30.05 in 10.0 mi NNW 5.8 mph - N/A   Overcast
6:15 PM 60.8 °F 53.6 °F 77% 30.05 in 10.0 mi Calm Calm - N/A   Overcast
6:35 PM 60.8 °F 53.6 °F 77% 30.06 in 10.0 mi NE 3.5 mph - N/A   Overcast
6:55 PM 59.0 °F 53.6 °F 82% 30.07 in 10.0 mi NNE 3.5 mph - N/A   Overcast
7:15 PM 57.2 °F 53.6 °F 88% 30.07 in 10.0 mi North 4.6 mph - N/A   Overcast
7:35 PM 57.2 °F 53.6 °F 88% 30.07 in 10.0 mi North 8.1 mph - N/A   Overcast
7:55 PM 57.2 °F 51.8 °F 82% 30.07 in 10.0 mi North 9.2 mph - N/A   Overcast
8:15 PM 55.4 °F 50.0 °F 82% 30.07 in 10.0 mi North 11.5 mph 16.1 mph N/A   Overcast
8:35 PM 55.4 °F 50.0 °F 82% 30.09 in 10.0 mi North 5.8 mph - N/A   Overcast
8:55 PM 55.4 °F 48.2 °F 77% 30.10 in 10.0 mi NNW 4.6 mph - N/A   Overcast
9:15 PM 55.4 °F 48.2 °F 77% 30.09 in 10.0 mi North 9.2 mph - N/A   Scattered Clouds
9:35 PM 53.6 °F 48.2 °F 82% 30.10 in 10.0 mi North 4.6 mph - N/A   Scattered Clouds
9:55 PM 53.6 °F 48.2 °F 82% 30.08 in 10.0 mi North 6.9 mph - N/A   Scattered Clouds
10:15 PM 51.8 °F 46.4 °F 82% 30.10 in 10.0 mi North 4.6 mph - N/A   Scattered Clouds
10:35 PM 51.8 °F 46.4 °F 82% 30.09 in 10.0 mi North 5.8 mph - N/A   Scattered Clouds
10:55 PM 51.8 °F 46.4 °F 82% 30.10 in 10.0 mi North 6.9 mph - N/A   Scattered Clouds
11:15 PM 51.8 °F 46.4 °F 82% 30.09 in 10.0 mi North 4.6 mph - N/A   Mostly Cloudy
11:35 PM 51.8 °F 46.4 °F 82% 30.09 in 10.0 mi North 3.5 mph - N/A   Mostly Cloudy